Location: G�rlitz
(51.1670°N, 15.0000°E)
Time: 15:20:11
(UTC+01:00)

Envisat - Pass Details

Date: 16 February 2026
Orbit: 761 x 763 km, 98.4° (Epoch: 5 March)

Event Time Altitude Azimuth Distance (km) Brightness Sun altitude
Rises 02:33:57 0° 17° (NNE) 3,237 6.9 -42.0°
Reaches altitude 10° 02:36:18 10° 20° (NNE) 2,306 6.0 -41.7°
Enters shadow 02:36:48 13° 22° (NNE) 2,113 5.8 -41.6°
